Погода в Некрасовке

Россия / Амурская область     50°40′42″N   128°21′09″E
темп.,
°C
ветер,
м/с
пор.,
м/с
влажн.,
%
обл.,
%
осадки,
мм/ч
давл.,
гПа
погр.,
м
29 ноября, пн
пн2900:00−9сз5989100 0.6 1023468
03:00−11сз51083100 0.6 1023403
06:00−16сз49885 0.0 1025131
09:00−19зсз39905 0.0 1026121
12:00−13сз37780 0.0 1026372
15:00−13зюз118777 0.0 10269
18:00−17ю2292100 0.0 102610
21:00−15ю3590100 0.0 102682
30 ноября, вт
вт3000:00−15ююв3590100 0.0 102473
03:00−14ю3593100 0.0 102299
06:00−15ююв2496100 0.0 102176
09:00−15ююв229878 0.0 102144
12:00−12зсз0092100 0.1 1020191
15:00−11с249497 0.2 1019300
18:00−16с349858 0.1 102055
21:00−21с3510095 0.1 102146
1 декабря, ср
ср100:00−21с37100100 0.0 102186
03:00−19ссз4129716 0.0 1019179
06:00−21ссз410945 0.0 1018150
09:00−20сз411945 0.0 1017197
12:00−15ссз513855 0.0 1014522
15:00−13ссз510813 0.0 1012424
18:00−19сз37935 0.0 101273
21:00−24сз221005 0.0 101010
2 декабря, чт
чт200:00−25сз111005 0.0 10099
03:00−26вюв1110039 0.0 10069
06:00−22ююв1298100 0.0 100429
09:00−18всв2287100 0.0 100374
12:00−15ссв2377100 0.0 1002231
15:00−14с3585100 0.0 1003289
18:00−16з1198100 0.1 100415
21:00−13сз3893100 0.3 1005319
3 декабря, пт
пт300:00−19зсз359837 0.0 100755
03:00−17сз410885 0.0 1008165
06:00−18сз410864 0.0 1009176
09:00−19зсз39895 0.0 1011143
12:00−14сз59815 0.0 1012656
15:00−14сз49785 0.0 1013324
18:00−21зсз35895 0.0 101650
21:00−22зсз35884 0.0 101752